Flag for Canada Weather past 2 weeks in Mississauga, Ontario, Canada

50 °F

Light rain. Mostly cloudy.

Feels Like: 47 °F
Forecast: 47 / 63 °F
Wind: 8 mph from Northeast

Location: Toronto Pearson International Airport

Current Time: Oct 9, 2015 at 1:30:24 AM

Latest Report: Oct 9, 2015 at 1:00 AM

Visibility: 10 mi

Pressure: 29.88 "Hg

Humidity: 94%

Dew point: 48 °F

Location of MississaugaLocation

Historic Weather in Mississauga — Graph


Mississauga temperature yesterday

Maximum temperature yesterday: 59 °F (at 3:00 PM)
Minimum temperature yesterday: 46 °F (at 3:00 AM)
Average temperature yesterday: 52 °F

Past Weeks' High & Low Weather Summary

High73 °F (Sep 24, 1:00 PM)100% (Sep 27, 5:00 AM)30.47 "Hg (Sep 27, 5:00 AM)
Low41 °F (Oct 1, 6:00 AM)36% (Oct 1, 3:00 PM)29.90 "Hg (Oct 9, 12:00 AM)
Average58 °F71%30.23 "Hg
* Reported Midnight between Sep 23 and Sep 24 — Midnight between Oct 8 and Oct 9, Mississauga, Weather by CustomWeather, © 2015

Note: Actual official high and low records may vary slightly from our data, if they occured in-between our weather recording intervals... More about our weather records


Mississauga weather history for previous 24 hours

Time TempWeatherWind HumidityBarometerVisibility
12:00 AM
Fri, Oct 9
52 °FLight rain. Overcast.8 mph94%29.90 "Hg12 mi
11:00 PM
Thu, Oct 8
52 °FLight rain. Overcast.7 mph94%29.95 "Hg10 mi
10:00 PM52 °FLight rain. Mostly cloudy.9 mph88%29.97 "Hg10 mi
9:00 PM54 °FLight rain. Mostly cloudy.9 mph77%29.99 "Hg12 mi
8:00 PM54 °FPartly cloudy.7 mph58%30.01 "Hg15 mi
7:00 PM54 °FBroken clouds.9 mph63%30.04 "Hg15 mi
6:00 PM55 °FBroken clouds.12 mph63%30.05 "Hg15 mi
5:00 PM57 °FPartly sunny.10 mph59%30.06 "Hg15 mi
4:00 PM57 °FPartly sunny.6 mph63%30.08 "Hg15 mi
3:00 PM59 °FPartly sunny.8 mph63%30.09 "Hg15 mi
2:00 PM57 °FBroken clouds.10 mph67%30.12 "Hg15 mi
1:00 PM57 °FBroken clouds.10 mph63%30.14 "Hg15 mi
12:00 PM55 °FPartly sunny.9 mph67%30.18 "Hg15 mi
11:00 AM55 °FPartly sunny.12 mph63%30.18 "Hg15 mi
10:00 AM54 °FScattered clouds.8 mph67%30.17 "Hg15 mi
9:00 AM50 °FPartly sunny.7 mph71%30.19 "Hg15 mi
8:00 AM48 °FPassing clouds.7 mph66%30.19 "Hg15 mi
7:00 AM46 °FPassing clouds.7 mph66%30.17 "Hg15 mi
6:00 AM48 °FPassing clouds.7 mph66%30.17 "Hg15 mi
5:00 AM46 °FPassing clouds.5 mph76%30.15 "Hg15 mi
4:00 AM46 °FClear.6 mph87%30.14 "Hg15 mi
3:00 AM46 °FClear.7 mph87%30.16 "Hg15 mi
2:00 AM48 °FClear.8 mph87%30.16 "Hg15 mi
1:00 AM50 °FClear.9 mph88%30.15 "Hg15 mi
Weather by CustomWeather, © 2015

See weather overviewHow to use our weather pages